EW8487 Weather Reports


Display with metric or nautical units.
time (UTC)temp
F
wind
direction
speed
MPH
gust
MPH
rain 1hr
in
rain 24hr
in
rain mn
in
humidity
%
barometer
mb
20260503054054 53 201 1.0 1.0 0.00 0.00 0.00 95 1011.9
20260503051056 53 269 0.0 0.0 0.00 0.00 0.00 96 1012.1
20260503045555 52 235 0.0 1.0 0.00 0.00 0.00 95 1012.1
20260503044055 53 233 0.0 1.0 0.00 0.00 0.00 95 1012.0
20260503042555 53 253 0.0 1.0 0.00 0.00 0.00 94 1012.0
20260503041055 54 232 0.0 1.0 0.00 0.00 0.00 93 1011.8
20260503035555 54 265 0.0 1.0 0.00 0.00 0.00 93 1011.8
20260503034054 54 283 0.0 1.0 0.00 0.00 0.00 92 1011.6
20260503032631 54 352 0.0 1.0 0.00 0.00 0.00 93 1011.8
20260503031121 54 26 0.0 1.0 0.00 0.00 0.00 93 1011.9
20260503024107 54 203 0.0 1.0 0.00 0.00 0.00 96 1012.4
20260503015554 53 196 1.0 2.0 0.00 0.00 0.00 97 1011.9
20260503011055 54 332 0.0 1.0 0.00 0.00 0.00 96 1012.5
20260503005559 54 184 0.0 1.0 0.00 0.00 0.00 96 1012.8
20260503001055 55 235 0.0 1.0 0.00 0.00 0.00 96 1013.1
20260502235555 55 224 0.0 1.0 0.00 0.00 0.00 96 1013.6
20260502232556 55 177 1.0 2.0 0.00 0.00 0.00 95 1014.0
20260502231055 55 41 0.0 1.0 0.00 0.00 0.00 94 1014.3
20260502225555 55 201 1.0 1.0 0.00 0.00 0.00 93 1014.5
20260502224055 55 34 0.0 1.0 0.00 0.00 0.00 94 1014.3
20260502222554 55 177 1.0 1.0 0.00 0.00 0.00 93 1014.1
20260502221055 55 172 1.0 1.0 0.00 0.00 0.00 93 1013.9
20260502215556 55 184 0.0 1.0 0.00 0.00 0.00 93 1013.8
20260502214055 56 182 1.0 1.0 0.00 0.00 0.00 92 1013.8
20260502212555 56 70 0.0 1.0 0.00 0.00 0.00 92 1013.9
20260502211056 56 228 0.0 0.0 0.00 0.00 0.00 92 1014.0
20260502205555 56 36 0.0 1.0 0.00 0.00 0.00 92 1013.9
20260502204055 56 328 0.0 1.0 0.00 0.00 0.00 92 1013.9
20260502202555 56 15 0.0 1.0 0.00 0.00 0.00 91 1013.8
20260502201055 56 185 0.0 1.0 0.00 0.00 0.00 91 1013.8
20260502195555 56 143 1.0 1.0 0.00 0.00 0.00 90 1013.7
20260502194055 57 164 0.0 1.0 0.00 0.00 0.00 89 1013.8
20260502191055 57 138 0.0 1.0 0.00 0.00 0.00 88 1013.6
20260502185556 58 209 1.0 1.0 0.00 0.00 0.00 87 1013.4
20260502182557 59 151 1.0 1.0 0.00 0.00 0.00 85 1013.6
20260502181131 59 137 0.0 2.0 0.00 0.00 0.00 84 1013.4
20260502164054 61 45 0.0 2.0 0.00 0.00 0.00 79 1013.8
20260502161055 61 71 1.0 2.0 0.00 0.00 0.00 79 1014.2
20260502151055 60 244 0.0 2.0 0.00 0.00 0.00 80 1014.5
20260502122555 62 38 0.0 2.0 0.00 0.00 0.00 71 1015.9
20260502121055 60 68 1.0 2.0 0.00 0.00 0.00 77 1016.0
20260502115555 60 77 1.0 3.0 0.00 0.00 0.00 77 1016.1
20260502114055 59 7 0.0 3.0 0.00 0.00 0.00 79 1016.1
20260502111055 60 182 1.0 3.0 0.00 0.00 0.00 78 1016.4
20260502105555 59 64 2.0 4.0 0.00 0.00 0.00 80 1016.6
20260502104055 59 195 1.0 3.0 0.00 0.00 0.00 79 1016.7
20260502102555 58 209 0.0 3.0 0.00 0.00 0.00 81 1016.9
20260502091055 57 29 1.0 3.0 0.00 0.00 0.00 81 1016.8
20260502071055 54 203 1.0 3.0 0.00 0.00 0.00 93 1016.5
20260502065555 53 149 1.0 2.0 0.00 0.00 0.00 94 1016.7
20260502064054 53 99 0.0 2.0 0.00 0.00 0.00 94 1016.6
20260502061055 53 65 1.0 2.0 0.00 0.00 0.00 95 1016.7